Current Version              Previous Version:    01  02  03  04  05  06  07  08  09  10  11  12  13  14  15  16  17  18  19  20  21  22  23  24  25  26  27  28  29  30  
   31  32  33  34  35  36  37  38  39  40  41  42  43  44  45  46  47  48  49  50  51  52  53  54  55  56  57  58  59  60  

[Printable]
757
ASUS44 KEWX 230410
RWRTX
SOUTH TEXAS REGIONAL WEATHER ROUNDUP
NATIONAL WEATHER SERVICE AUSTIN/SAN ANTONIO TX
1100 PM CDT WED OCT 22 2014

NOTE: "FAIR" INDICATED FEW OR NO CLOUDS BELOW 12,000 FEET WITH NO
SIGNIFICANT WEATHER AND/OR OBSTRUCTIONS TO VISIBILITY.

* - THESE STATIONS ARE NOT NWS OR FAA STATIONS...AND ARE NOT SUBJECT
    TO NWS AND FAA QUALITY CONTROL.

TXZ171-172-183>190-230500-
TEXAS HILL COUNTRY AND EDWARDS PLATEAU

CITY           SKY/WX    TMP DP  RH WIND       PRES   REMARKS
JUNCTION       CLOUDY    63  61  93 CALM      30.12F
*LLANO         NOT AVBL
BURNET         CLOUDY    70  57  63 E7        30.12F
*HORSESHOE BAY CLOUDY    71  58  64 CALM      30.12R
*KERRVILLE     LGT RAIN  64  62  93 CALM      30.12F
*FREDERICKSBRG CLOUDY    65  62  89 CALM      30.12S
*ROCKSPRINGS   CLOUDY    61  61 100 E6        30.16R
*BOERNE STAGE  CLOUDY    66  55  68 CALM      30.13R
*CASTROVILLE   CLOUDY    75  54  46 SE3       30.10R
HONDO          CLOUDY    71  54  54 E8        30.10R
*UVALDE        CLOUDY    73  60  63 N5        30.10R
DEL RIO        CLOUDY    66  64  93 W3        30.11R
LAUGHLIN AFB   MOCLDY    65  64  97 W7        30.12R
CARRIZO SPRGS  CLOUDY    77  59  53 S3        30.07R
$$

TXZ173-191>194-202-209-217>225-228-230500-
CENTRAL AND SOUTH CENTRAL TEXAS

CITY           SKY/WX    TMP DP  RH WIND       PRES   REMARKS
GEORGETOWN     CLOUDY    70  61  73 E3        30.10F
AUSTIN/BERGSTM CLOUDY    70  60  70 NE5       30.08F
AUSTIN/MABRY   CLOUDY    73  59  61 NE5       30.10S
*AUSTIN/EXEC   CLOUDY    68  59  73 NE5       30.11R
*LAGO VISTA    CLOUDY    72  59  63 E6        30.11F
SAN MARCOS     CLOUDY    72  55  56 CALM      30.10S
NEW BRAUNFELS  CLOUDY    73  58  59 E6        30.08R
RANDOLPH AFB   CLOUDY    71  57  60 E6        30.09S
PT SAN ANTONIO CLOUDY    76  57  51 E12       30.07R
SAN ANTONIO    CLOUDY    75  57  53 E10       30.08S
STINSON FIELD  MOCLDY    75  56  51 E7        30.07R
*PLEASANTON    MOCLDY    73  57  57 E3        30.09R
*LA GRANGE     MOCLDY    68  62  83 CALM      30.08S
*GIDDINGS      MOCLDY    68  58  70 E3        30.14R
*GONZALES      MOCLDY    71  59  66 E5        30.08S
$$

TXZ163>164-176>182-195>201-210>213-226-227-235-230500-
SOUTHEAST TEXAS

CITY           SKY/WX    TMP DP  RH WIND       PRES   REMARKS
COLLEGE STN    MOCLDY    69  57  65 E5        30.10S
*BRYAN         MOCLDY    67  58  72 NE3       30.12S
*CALDWELL      MOCLDY    68  57  68 CALM      30.14R
*CROCKETT      MOCLDY    61  57  88 NE3       30.15S
*BRENHAM       MOCLDY    67  60  77 E3        30.10F
HUNTSVILLE     PTCLDY    63  57  81 CALM      30.11S
CONROE         CLEAR     59  57  93 CALM      30.11S
HOUSTON BUSH   CLEAR     64  59  83 N3        30.10R
HOUSTON HOBBY  PTCLDY    65  61  87 CALM      30.09S
*HOUSTON SW AP CLEAR     56  56  99 CALM      30.10S FOG
PEARLAND       CLEAR     65  60  84 CALM      30.10S
HOUSTON HOOKS  CLEAR     62  59  90 CALM      30.10R
ELLINGTON FLD  PTCLDY    70  64  83 CALM      30.10S
SUGAR LAND     CLEAR     64  60  87 CALM      30.09R
*HOUSTON EXEC  PTCLDY    64 N/A N/A E3        30.11R
*CLEVELAND MUN NOT AVBL
*WHARTON       CLEAR     62  59  88 E3        30.10R
*COLUMBUS      FAIR      66  59  77 CALM      30.09S
$$

TXZ214>216-236>238-230500-
THE UPPER TEXAS COAST

CITY           SKY/WX    TMP DP  RH WIND       PRES   REMARKS
*ORANGE        CLEAR     64  56  74 N3        30.12R
PORT ARTHUR    CLEAR     67  58  72 VRB3      30.10R
GALVESTON      CLEAR     71  64  78 NE5       30.10R
ANGLETON       CLEAR     60  60 100 N3        30.09R
*BAY CITY        N/A     64  62  94 E3        30.08S
PALACIOS       CLEAR     68  61  78 E8        30.08R
$$

TXZ229>234-239>247-230500-
TEXAS COASTAL BEND AND RIO GRANDE PLAINS

CITY           SKY/WX    TMP DP  RH WIND       PRES   REMARKS
VICTORIA       CLEAR     65  61  87 E3        30.09R
*BEEVILLE      CLEAR     70  64  80 E6        30.07R
ROCKPORT       CLEAR     75  63  66 E9        30.07R
*PORT ARANSAS  CLEAR     75  64  68 E13       30.06S
*PORT LAVACA   CLEAR     71  63  77 E7        30.08S
*INGLESIDE     CLEAR     74  64  72 E6        30.06S
CORPUS CHRISTI MOCLDY    74  65  73 E9        30.06R
CORPUS NAS     PTCLDY    74  67  78 E10       30.06R
*ROBSTOWN      NOT AVBL
ALICE          CLEAR     71  65  81 E3        30.06R
KINGSVILLE NAS PTCLDY    69  66  90 E7        30.06R
COTULLA        MOCLDY    77  61  57 SE10      30.06R
*FAITH RANCH   CLOUDY    73  61  64 N7        30.08R
LAREDO         CLOUDY    76  64  66 E9        30.09R
$$

TXZ248>255-230500-
DEEP SOUTH TEXAS

CITY           SKY/WX    TMP DP  RH WIND       PRES   REMARKS
BROWNSVILLE    CLEAR     74  69  85 NE6       30.03R
PORT ISABEL    CLEAR     76  67  73 NE8       30.03R
*SOUTH PADRE   PTCLDY    77  68  73 NE12      30.03S
HARLINGEN      CLEAR     71  68  90 NE7       30.03R
*HEBBRONVILLE  CLEAR     70  63  78 E3        30.09R
MCALLEN        CLEAR     74  68  81 NE6       30.05R
*WESLACO       CLEAR     71  66  86 NE3       30.04R
FALFURRIAS     CLEAR     69  65  88 E3        30.06R
EDINBURG       PTCLDY    72  67  84 NE3       30.06R
*ZAPATA        CLOUDY    75  63  66 E8        30.07R
$$

TXZ213>215-236>238-242>244-246-247-251-254-255-230500-
CMAN STATIONS

STATION/POSITION TIME  TEMP    WIND        PRES    WAVE
                       AIR SEA DIR/SP/G            HT/PER
                 (UTC) (F)     (DEG/KT/KT) (MB)    (FT/S)
SABINE PASS      0400   67 75   50/  6/  8 1019.1
SEA RIM ST PARK  0400   67      60/  7/  8 1019.6
NORTH JETTY/GLS  0400   73 77   50/  7/  8   N/A
EAGLE POINT      0400   71 76   10/  3/  4 1019.1
MORGANS POINT    0400   71      20/  4/  5 1019.0
MISSION/ARANSAS  0300           80/  9     1019.0
PORT O`CONNOR    0400           80/ 16/ 19   N/A
PORT ARANSAS     0400   76 78   70/ 15/ 17 1018.5
MALAQUITE BEACH  0400   77 78   70/ 15/ 18 1017.2
BAFFIN BAY       0400   77 84   80/ 12/ 14 1017.4
PORT ISABEL      0400   79 80   50/  9/ 14 1016.8
$$

GMZ080-GMZ150>470-230500-
OFFSHORE BUOY REPORTS

STATION/POSITION TIME  TEMP    WIND        PRES    WAVE
                       AIR SEA DIR/SP/G            HT/PER
                 (UTC) (F)     (DEG/KT/KT) (MB)    (FT/S)
20 E GALVESTON   0400   75 78   50/  6/  8 1018.5    3/ 7
90 E PT ARANSAS  0400   76 81   50/ 12/ 16 1018.1    4/ 7
35 NE PT MANSFLD 0400   78 81   60/ 14/ 17 1016.8    5/ 7
200 E PT ISABEL  0400   80 81   70/ 17/ 19 1015.2    6/ 7
$$